Tracking 29493 objects as of 9-Sep-2024
HD Live streaming from Space Station
objects crossing your sky now

IRIDIUM 39

Track IRIDIUM 39 now!
10-day predictions
IRIDIUM 39 is classified as:


NORAD ID: 25042
Int'l Code: 1997-069D
Perigee: 724.8 km
Apogee: 751.8 km
Inclination: 86.4 °
Period: 99.4 minutes
Semi major axis: 7109 km
RCS: 4.3221 m2 (large)
Launch date: November 9, 1997
Source: United States (US)
Launch site: AIR FORCE WESTERN TEST RANGE (AFWTR)
Your satellite tracking list
Your tracking list is empty




NASA's NSSDC Master Catalog

Two Line Element Set (TLE):
1 25042U 97069D   24252.75704275  .00003023  00000-0  80217-3 0  9995
2 25042  86.3955 331.7926 0019007 160.1593 200.0354 14.48303322408213
Source of the keplerian elements: AFSPC